Time,TemperatureF,DewpointF,PressureIn,WindDirection,WindDirectionDegrees,WindSpeedMPH,WindSpeedGustMPH,Humidity,HourlyPrecipIn,Conditions,Clouds,dailyrainin,SoftwareType,DateUTC
2013-03-31 00:03:00,44.6,29.0,29.98,North,11,0.0,0.0,55,0.00,,,0.00,weatherlink.com 1.10,2013-03-31 04:03:00,
2013-03-31 00:18:00,44.7,30.0,29.98,North,11,0.0,1.0,56,0.00,,,0.00,weatherlink.com 1.10,2013-03-31 04:18:00,
2013-03-31 00:33:00,44.8,30.0,29.98,North,11,0.0,0.0,56,0.00,,,0.00,weatherlink.com 1.10,2013-03-31 04:33:00,
2013-03-31 00:48:00,44.9,29.0,29.97,North,11,0.0,0.0,55,0.00,,,0.00,weatherlink.com 1.10,2013-03-31 04:48:00,
2013-03-31 01:03:00,45.0,29.0,29.97,North,11,0.0,0.0,53,0.00,,,0.00,weatherlink.com 1.10,2013-03-31 05:03:00,
2013-03-31 01:18:00,45.1,29.0,29.96,North,11,0.0,0.0,54,0.00,,,0.00,weatherlink.com 1.10,2013-03-31 05:18:00,
2013-03-31 01:33:00,45.0,32.0,29.95,North,11,0.0,1.0,60,0.00,,,0.00,weatherlink.com 1.10,2013-03-31 05:33:00,
2013-03-31 01:48:00,44.5,31.0,29.95,North,11,0.0,0.0,59,0.00,,,0.00,weatherlink.com 1.10,2013-03-31 05:48:00,
2013-03-31 02:03:00,44.0,30.0,29.94,North,11,0.0,0.0,58,0.00,,,0.00,weatherlink.com 1.10,2013-03-31 06:03:00,
2013-03-31 02:18:00,43.6,30.0,29.93,North,11,0.0,0.0,58,0.00,,,0.00,weatherlink.com 1.10,2013-03-31 06:18:00,
2013-03-31 02:33:00,43.1,30.0,29.92,North,11,0.0,1.0,61,0.00,,,0.00,weatherlink.com 1.10,2013-03-31 06:33:00,
2013-03-31 02:48:00,42.6,30.0,29.91,North,11,0.0,0.0,61,0.00,,,0.00,weatherlink.com 1.10,2013-03-31 06:48:00,
2013-03-31 03:03:00,42.5,28.0,29.90,North,11,1.0,1.0,56,0.00,,,0.00,weatherlink.com 1.10,2013-03-31 07:03:00,
2013-03-31 03:18:00,42.8,27.0,29.89,East,100,0.0,2.0,54,0.00,,,0.00,weatherlink.com 1.10,2013-03-31 07:18:00,
2013-03-31 03:33:00,43.4,26.0,29.89,East,100,0.0,1.0,51,0.00,,,0.00,weatherlink.com 1.10,2013-03-31 07:33:00,
2013-03-31 03:48:00,43.7,26.0,29.88,East,100,0.0,2.0,51,0.00,,,0.00,weatherlink.com 1.10,2013-03-31 07:48:00,
2013-03-31 04:03:00,43.8,26.0,29.88,SE,131,1.0,2.0,50,0.00,,,0.00,weatherlink.com 1.10,2013-03-31 08:03:00,
2013-03-31 04:18:00,43.9,26.0,29.87,SE,131,0.0,2.0,49,0.00,,,0.00,weatherlink.com 1.10,2013-03-31 08:18:00,
2013-03-31 04:33:00,43.9,26.0,29.86,SE,131,0.0,1.0,49,0.00,,,0.00,weatherlink.com 1.10,2013-03-31 08:33:00,
2013-03-31 04:48:00,43.8,26.0,29.86,SE,131,0.0,2.0,50,0.00,,,0.00,weatherlink.com 1.10,2013-03-31 08:48:00,
2013-03-31 05:03:00,43.7,25.0,29.85,SSE,159,0.0,3.0,49,0.00,,,0.00,weatherlink.com 1.10,2013-03-31 09:03:00,
2013-03-31 05:18:00,43.5,25.0,29.85,SSE,159,0.0,1.0,49,0.00,,,0.00,weatherlink.com 1.10,2013-03-31 09:18:00,
2013-03-31 05:34:00,43.3,25.0,29.84,SSE,159,0.0,0.0,49,0.00,,,0.00,weatherlink.com 1.10,2013-03-31 09:34:00,
2013-03-31 05:49:00,43.1,25.0,29.83,SSE,160,0.0,0.0,49,0.00,,,0.00,weatherlink.com 1.10,2013-03-31 09:49:00,
2013-03-31 06:04:00,42.9,25.0,29.83,SSE,160,0.0,0.0,50,0.00,,,0.00,weatherlink.com 1.10,2013-03-31 10:04:00,
2013-03-31 06:19:00,42.9,26.0,29.82,SSE,159,0.0,1.0,51,0.00,,,0.00,weatherlink.com 1.10,2013-03-31 10:19:00,
2013-03-31 06:34:00,43.1,26.0,29.82,SSE,159,0.0,2.0,51,0.00,,,0.00,weatherlink.com 1.10,2013-03-31 10:34:00,
2013-03-31 06:49:00,43.2,26.0,29.81,SSE,159,1.0,1.0,50,0.00,,,0.00,weatherlink.com 1.10,2013-03-31 10:49:00,
2013-03-31 07:04:00,43.3,26.0,29.81,SSE,159,0.0,1.0,50,0.00,,,0.00,weatherlink.com 1.10,2013-03-31 11:04:00,
2013-03-31 07:19:00,43.4,25.0,29.80,SSE,159,0.0,1.0,49,0.00,,,0.00,weatherlink.com 1.10,2013-03-31 11:19:00,
2013-03-31 07:34:00,43.3,27.0,29.80,SSE,159,0.0,2.0,52,0.00,,,0.00,weatherlink.com 1.10,2013-03-31 11:34:00,
2013-03-31 07:49:00,43.2,27.0,29.80,SSE,157,0.0,2.0,53,0.00,,,0.00,weatherlink.com 1.10,2013-03-31 11:49:00,
2013-03-31 08:04:00,42.9,27.0,29.79,SSE,157,0.0,1.0,53,0.00,,,0.00,weatherlink.com 1.10,2013-03-31 12:04:00,
2013-03-31 08:19:00,42.8,27.0,29.79,SSE,157,0.0,1.0,55,0.00,,,0.00,weatherlink.com 1.10,2013-03-31 12:19:00,
2013-03-31 08:34:00,43.2,28.0,29.79,SE,131,0.0,2.0,56,0.00,,,0.00,weatherlink.com 1.10,2013-03-31 12:34:00,
2013-03-31 08:49:00,44.8,28.0,29.79,SSW,200,0.0,3.0,52,0.00,,,0.00,weatherlink.com 1.10,2013-03-31 12:49:00,
2013-03-31 09:04:00,46.3,28.0,29.79,SW,217,2.0,4.0,50,0.00,,,0.00,weatherlink.com 1.10,2013-03-31 13:04:00,
2013-03-31 09:19:00,47.1,29.0,29.78,SW,227,2.0,5.0,50,0.00,,,0.00,weatherlink.com 1.10,2013-03-31 13:19:00,
2013-03-31 09:34:00,47.9,30.0,29.77,SW,228,2.0,5.0,50,0.00,,,0.00,weatherlink.com 1.10,2013-03-31 13:34:00,
2013-03-31 09:49:00,48.5,31.0,29.77,SW,217,0.0,5.0,51,0.00,,,0.00,weatherlink.com 1.10,2013-03-31 13:49:00,
2013-03-31 10:04:00,49.1,32.0,29.77,WSW,253,4.0,5.0,52,0.00,,,0.00,weatherlink.com 1.10,2013-03-31 14:04:00,
2013-03-31 10:19:00,49.7,33.0,29.77,South,181,2.0,4.0,53,0.00,,,0.00,weatherlink.com 1.10,2013-03-31 14:19:00,
2013-03-31 10:34:00,49.8,34.0,29.77,SSW,199,2.0,7.0,56,0.00,,,0.00,weatherlink.com 1.10,2013-03-31 14:34:00,
2013-03-31 10:49:00,50.0,35.0,29.76,SSW,204,3.0,6.0,57,0.00,,,0.00,weatherlink.com 1.10,2013-03-31 14:49:00,
2013-03-31 11:04:00,50.5,36.0,29.76,SSW,198,2.0,7.0,58,0.00,,,0.00,weatherlink.com 1.10,2013-03-31 15:04:00,
2013-03-31 11:20:00,53.5,38.0,29.75,SE,127,4.0,7.0,57,0.00,,,0.00,weatherlink.com 1.10,2013-03-31 15:20:00,
2013-03-31 11:34:00,54.2,39.0,29.75,WSW,245,4.0,9.0,58,0.00,,,0.00,weatherlink.com 1.10,2013-03-31 15:34:00,
2013-03-31 11:49:00,53.5,41.0,29.75,SW,233,3.0,8.0,63,0.00,,,0.00,weatherlink.com 1.10,2013-03-31 15:49:00,
2013-03-31 12:04:00,53.5,41.0,29.75,South,183,3.0,13.0,63,0.00,,,0.00,weatherlink.com 1.10,2013-03-31 16:04:00,
2013-03-31 12:19:00,53.4,43.0,29.75,SSE,150,3.0,6.0,67,0.00,,,0.00,weatherlink.com 1.10,2013-03-31 16:19:00,
2013-03-31 12:34:00,53.7,42.0,29.75,South,171,5.0,6.0,66,0.00,,,0.00,weatherlink.com 1.10,2013-03-31 16:34:00,
2013-03-31 12:49:00,53.3,42.0,29.74,South,176,2.0,7.0,66,0.00,,,0.00,weatherlink.com 1.10,2013-03-31 16:49:00,
2013-03-31 13:04:00,53.0,43.0,29.73,SW,220,3.0,7.0,68,0.00,,,0.00,weatherlink.com 1.10,2013-03-31 17:04:00,
2013-03-31 13:19:00,53.0,43.0,29.73,West,272,4.0,6.0,68,0.00,,,0.00,weatherlink.com 1.10,2013-03-31 17:19:00,
2013-03-31 13:34:00,52.7,42.0,29.73,SW,229,3.0,7.0,68,0.00,,,0.00,weatherlink.com 1.10,2013-03-31 17:34:00,
2013-03-31 13:49:00,52.7,43.0,29.72,South,189,3.0,7.0,70,0.00,,,0.00,weatherlink.com 1.10,2013-03-31 17:49:00,
2013-03-31 14:05:00,53.0,44.0,29.71,SSE,156,2.0,6.0,71,0.00,,,0.00,weatherlink.com 1.10,2013-03-31 18:05:00,
2013-03-31 14:20:00,53.1,44.0,29.71,West,260,3.0,5.0,70,0.00,,,0.00,weatherlink.com 1.10,2013-03-31 18:20:00,
2013-03-31 14:35:00,52.3,44.0,29.71,West,276,0.0,6.0,73,0.00,,,0.00,weatherlink.com 1.10,2013-03-31 18:35:00,
2013-03-31 14:50:00,51.6,45.0,29.71,SSW,204,3.0,7.0,79,0.00,,,0.00,weatherlink.com 1.10,2013-03-31 18:50:00,
2013-03-31 15:05:00,51.0,46.0,29.71,SSW,202,1.0,4.0,83,0.00,,,0.00,weatherlink.com 1.10,2013-03-31 19:05:00,
2013-03-31 15:20:00,50.7,46.0,29.70,South,183,0.0,3.0,85,0.00,,,0.00,weatherlink.com 1.10,2013-03-31 19:20:00,
2013-03-31 15:35:00,50.5,47.0,29.70,SSW,197,0.0,3.0,86,0.00,,,0.00,weatherlink.com 1.10,2013-03-31 19:35:00,
2013-03-31 15:50:00,50.4,46.0,29.69,SSW,202,8.0,9.0,85,0.00,,,0.00,weatherlink.com 1.10,2013-03-31 19:50:00,
2013-03-31 16:05:00,50.7,46.0,29.69,WSW,255,0.0,10.0,83,0.00,,,0.00,weatherlink.com 1.10,2013-03-31 20:05:00,
2013-03-31 16:20:00,50.9,46.0,29.69,WNW,291,3.0,11.0,83,0.00,,,0.00,weatherlink.com 1.10,2013-03-31 20:20:00,
2013-03-31 16:35:00,50.6,45.0,29.69,North,354,4.0,9.0,82,0.00,,,0.00,weatherlink.com 1.10,2013-03-31 20:35:00,
2013-03-31 16:50:00,50.1,45.0,29.69,West,260,3.0,10.0,83,0.00,,,0.00,weatherlink.com 1.10,2013-03-31 20:50:00,
2013-03-31 17:05:00,50.8,46.0,29.69,SSW,210,4.0,9.0,84,0.00,,,0.00,weatherlink.com 1.10,2013-03-31 21:05:00,
2013-03-31 17:20:00,51.2,46.0,29.69,South,189,4.0,11.0,81,0.00,,,0.00,weatherlink.com 1.10,2013-03-31 21:20:00,
2013-03-31 17:35:00,51.8,45.0,29.68,West,266,6.0,9.0,77,0.00,,,0.00,weatherlink.com 1.10,2013-03-31 21:35:00,
2013-03-31 17:50:00,52.0,45.0,29.68,WSW,237,1.0,9.0,76,0.00,,,0.00,weatherlink.com 1.10,2013-03-31 21:50:00,
2013-03-31 18:05:00,52.3,44.0,29.69,SW,228,4.0,11.0,72,0.00,,,0.00,weatherlink.com 1.10,2013-03-31 22:05:00,
2013-03-31 18:20:00,52.3,44.0,29.69,West,262,3.0,7.0,72,0.00,,,0.00,weatherlink.com 1.10,2013-03-31 22:20:00,
2013-03-31 18:51:00,51.8,43.0,29.69,SW,219,1.0,6.0,71,0.00,,,0.00,weatherlink.com 1.10,2013-03-31 22:51:00,
2013-03-31 19:05:00,51.3,42.0,29.68,SSW,212,4.0,8.0,71,0.00,,,0.00,weatherlink.com 1.10,2013-03-31 23:05:00,
2013-03-31 19:20:00,51.1,42.0,29.68,South,179,0.0,8.0,71,0.00,,,0.00,weatherlink.com 1.10,2013-03-31 23:20:00,
2013-03-31 19:35:00,50.6,42.0,29.68,South,187,3.0,5.0,72,0.00,,,0.00,weatherlink.com 1.10,2013-03-31 23:35:00,
2013-03-31 19:50:00,50.0,41.0,29.69,SW,235,1.0,6.0,72,0.00,,,0.00,weatherlink.com 1.10,2013-03-31 23:50:00,
2013-03-31 20:05:00,49.6,41.0,29.68,SSW,204,0.0,3.0,72,0.00,,,0.00,weatherlink.com 1.10,2013-04-01 00:05:00,
2013-03-31 20:20:00,49.1,41.0,29.68,SSW,203,1.0,3.0,73,0.00,,,0.00,weatherlink.com 1.10,2013-04-01 00:20:00,
2013-03-31 20:35:00,48.5,40.0,29.69,SW,224,1.0,4.0,73,0.00,,,0.00,weatherlink.com 1.10,2013-04-01 00:35:00,
2013-03-31 20:50:00,48.0,40.0,29.69,SSW,192,0.0,3.0,74,0.00,,,0.00,weatherlink.com 1.10,2013-04-01 00:50:00,
2013-03-31 21:05:00,47.7,40.0,29.69,South,186,1.0,3.0,75,0.00,,,0.00,weatherlink.com 1.10,2013-04-01 01:05:00,
2013-03-31 21:20:00,47.7,40.0,29.69,SSW,212,0.0,4.0,76,0.00,,,0.00,weatherlink.com 1.10,2013-04-01 01:20:00,
2013-03-31 21:35:00,48.1,41.0,29.69,SSW,199,1.0,2.0,75,0.00,,,0.00,weatherlink.com 1.10,2013-04-01 01:35:00,
2013-03-31 21:50:00,48.2,41.0,29.69,SSW,205,3.0,4.0,75,0.00,,,0.00,weatherlink.com 1.10,2013-04-01 01:50:00,
2013-03-31 22:05:00,48.5,40.0,29.69,WNW,299,2.0,3.0,73,0.00,,,0.00,weatherlink.com 1.10,2013-04-01 02:05:00,
2013-03-31 22:20:00,48.8,40.0,29.69,NNW,345,0.0,2.0,73,0.00,,,0.00,weatherlink.com 1.10,2013-04-01 02:20:00,
2013-03-31 22:35:00,48.2,41.0,29.69,SSE,162,4.0,10.0,77,0.01,,,0.01,weatherlink.com 1.10,2013-04-01 02:35:00,
2013-03-31 22:50:00,47.6,42.0,29.70,South,189,2.0,8.0,82,0.01,,,0.01,weatherlink.com 1.10,2013-04-01 02:50:00,
2013-03-31 23:06:00,47.8,42.0,29.69,SW,219,2.0,10.0,79,0.01,,,0.01,weatherlink.com 1.10,2013-04-01 03:06:00,
2013-03-31 23:20:00,48.0,41.0,29.68,WSW,247,1.0,7.0,78,0.01,,,0.01,weatherlink.com 1.10,2013-04-01 03:20:00,
2013-03-31 23:35:00,47.7,42.0,29.68,SW,218,1.0,4.0,80,0.00,,,0.01,weatherlink.com 1.10,2013-04-01 03:35:00,
2013-03-31 23:50:00,47.4,42.0,29.67,SSW,204,0.0,4.0,80,0.00,,,0.01,weatherlink.com 1.10,2013-04-01 03:50:00,